FENGYUN 1C DEB

Satellite information

Favourite Embed

Satellite Type and Status

DEBRISIN ORBIT

Key statistics

Satellite FENGYUN 1C DEB at a glance.

Uptime

9615

Days in orbit

Revolutions

≈ 14.2

Per day

Orbit

SSO

Sun Synchronous Orbit

Inclination

99.1

Latest

Satellite identification and parameters

Extended collection of information and parameters for FENGYUN 1C DEB.

Object identification

Identified? True

Debris? True

Object name: FENGYUN 1C DEB

International designator: 1999-025VH

Object number (NORAD): 30200

Object ID (CCSDS): 30200

Country: PEOPLES REPUBLIC OF CHINA (PRC)

Current information (Y/N): Y

RCS size: SMALL

Orbital parameters

Period: 101.255 minutes

Inclination: 99.1218 deg

SMA: 7196.208 km

Apoapsis: 924.253 km

Periapsis: 711.893 km

RAAN: 76.7606 deg

Eccentricy: 0.014755

Argument of periapsis: 28.9919 deg

Mean anomaly: 331.9353 deg

Mean motion: 14.22155827 rev/day

Mean motion (dot): 0.00000586 rev/day2

B* drag term: 0.00025576121 1/REarth

Two-line elements (TLE)

Creation date: Sept. 2, 2025, 11:42 p.m.

Reference frame: TEME

Reference center: EARTH

Epoch: Sept. 2, 2025, 11:32 a.m. UTC

TLE line 0: 0 FENGYUN 1C DEB

TLE line 1: 1 30200U 99025VH 25245.48068727 .00000586 00000-0 25576-3 0 9997

TLE line 2: 2 30200 99.1218 76.7606 0147550 28.9919 331.9353 14.22155827965430

Live tracking on map

Real-time ground track for satellite FENGYUN 1C DEB.

In-orbit conjunctions

A list of the most updated potential collisions computed for object FENGYUN 1C DEB.

Target Orbit TCA Probability of collision Miss distance Type
NOAA 17 DEB SSO 2025-06-14 16:01:27 0.0002034231 98.0 (m) DEBRIS
COSMOS 1275 DEB LEO 2024-10-15 10:22:09 0.0002064548 104.0 (m) DEBRIS

Associated space launch

Chinese polar orbiting meteorological satellite

FENGYUN 1C DEB was lifted into orbit during the mission ‘Long March 4B | Feng Yun 1C’, on board a Long March 4B space rocket.

The launch took place on May 10, 1999, 1:33 a.m. from Launch Complex 7.

For more information about the launch, click the button.

Launch to space Long March 4B | Feng Yun 1C
Long March 4B | Feng Yun 1C

Agency: N/A

Status: Launch Successful

Launch date: May 10, 1999, 1:33 a.m. UTC

Rocket: Long March 4B

Launch pad: Launch Complex 7

Location: Taiyuan Satellite Launch Center, People's Republic of China

...

Latest news about this satellite

There are no fresh news available about this satellite. Check back as we update our databases every day.


Newsletter sign-up

Weekly statistics, charts and insights to help you stay on top of the space industry.